Weather History for Hamilton Island, QU

Change the Weather History Date:

Thursday, January 24, 2013

  Actual Average Record
Temperature  
Mean Temperature 79 °F -  
Max Temperature 84 °F - - ()
Min Temperature 74 °F - - ()
Cooling Degree Days 14    
Growing Degree Days 29 (Base 50)    
Moisture  
Dew Point 78 °F    
Average Humidity 94    
Maximum Humidity 100    
Minimum Humidity 84    
Precipitation  
Precipitation 1.69 in - - ()
Sea Level Pressure  
Sea Level Pressure 29.48 in    
Wind  
Wind Speed 20 mph ()    
Max Wind Speed 37 mph    
Max Gust Speed 58 mph    
T = Trace of Precipitation, MM = Missing Value Source: Averaged Metar Reports

Daily Weather History Graph

Daily Weather History Graph

Search for Another Location

Airport:

Trip Planner

Search our weather history database for the weather conditions in past years. The results will help you decide how hot, cold, wet, or windy it might be!

Date:

Astronomy

Jan. 24, 2013 Rise Set
Actual Time 5:42 AM AEST 6:49 PM AEST
Civil Twilight 5:18 AM AEST 7:13 PM AEST
Nautical Twilight 4:50 AM AEST 7:41 PM AEST
Astronomical Twilight 4:21 AM AEST 8:10 PM AEST
Moon 4:28 PM AEST (1/24) 2:57 AM AEST (1/24)
Length of Visible Light 13h 54m
Length of Day
13h 07m
Waxing Gibbous, 91% of the Moon is Illuminated
Jan 24
Waxing Gibbous
Jan 27
Full
Feb 3
Last Quarter
Feb 10
New
Feb 18
First Quarter

Hourly Weather History & Observations

Time (AEST) Temp. Heat Index Dew Point Humidity Pressure Visibility Wind Dir Wind Speed Gust Speed Precip Events Conditions
12:00 AM 79 °F - - % 29.60 in - East 28.8 mph - -  
12:00 AM 78.8 °F - 78.8 °F 100% 29.59 in - East 28.8 mph - N/A   Unknown
12:31 AM 78.8 °F - 78.8 °F 100% 29.59 in - ESE 25.3 mph 39.1 mph N/A   Unknown
12:49 AM 78.8 °F - 78.8 °F 100% 29.56 in - ENE 19.6 mph 39.1 mph N/A   Unknown
1:00 AM 78.8 °F - 78.8 °F 100% 29.56 in - ENE 24.2 mph 36.8 mph N/A   Unknown
1:24 AM - - - N/A% 29.59 in - NNE 11.5 mph 28.8 mph N/A   Unknown
1:37 AM - - - N/A% 29.56 in - North 17.3 mph 28.8 mph N/A   Unknown
2:00 AM 77.0 °F - 77.0 °F 100% 29.56 in - NE 18.4 mph - N/A   Unknown
2:30 AM - - - N/A% 29.56 in - NNW 8.1 mph - N/A   Unknown
3:00 AM 78 °F - 78 °F 100% 29.55 in - North 11.5 mph - -  
3:00 AM 78.8 °F - 78.8 °F 100% 29.53 in - North 11.5 mph - N/A   Unknown
3:30 AM 80.6 °F 88.1 °F 78.8 °F 94% 29.53 in - NNE 9.2 mph 20.7 mph N/A   Unknown
4:00 AM 80.6 °F 88.1 °F 78.8 °F 94% 29.53 in - NE 13.8 mph - N/A   Unknown
4:30 AM 80.6 °F 88.1 °F 78.8 °F 94% 29.50 in - NNE 12.7 mph - N/A   Unknown
5:00 AM 80.6 °F 88.1 °F 78.8 °F 94% 29.53 in - NNE 15.0 mph 26.5 mph N/A   Unknown
5:30 AM 80.6 °F 88.1 °F 78.8 °F 94% 29.53 in - NNE 16.1 mph - N/A   Unknown
6:00 AM 81 °F - 78 °F 89% 29.55 in - NNE 11.5 mph - -  
6:00 AM 80.6 °F 88.1 °F 78.8 °F 94% 29.56 in - NNE 11.5 mph 24.2 mph N/A   Unknown
6:30 AM 80.6 °F 88.1 °F 78.8 °F 94% 29.56 in - North 11.5 mph 28.8 mph N/A   Unknown
6:44 AM 80.6 °F 88.1 °F 78.8 °F 94% 29.59 in - NNE 17.3 mph 28.8 mph N/A   Unknown
7:00 AM 80.6 °F 87.1 °F 77.0 °F 89% 29.56 in - NNE 17.3 mph 33.4 mph N/A   Unknown
7:30 AM 80.6 °F 89.3 °F 80.6 °F 100% 29.56 in - NE 18.4 mph 32.2 mph N/A   Unknown
8:00 AM 78.8 °F - 78.8 °F 100% 29.56 in - NNE 20.7 mph 36.8 mph N/A   Unknown
8:16 AM 80.6 °F 89.3 °F 80.6 °F 100% 29.56 in - ENE 29.9 mph - N/A   Unknown
8:19 AM 80.6 °F 89.3 °F 80.6 °F 100% 29.56 in - NNE 20.7 mph 35.7 mph N/A   Unknown
8:26 AM 80.6 °F 88.1 °F 78.8 °F 94% 29.56 in - NNE 20.7 mph 33.4 mph N/A   Unknown
8:30 AM 78.8 °F - 77.0 °F 94% 29.56 in - NNE 21.9 mph 35.7 mph N/A   Unknown
9:00 AM 80 °F - 78 °F 93% 29.57 in - NE 21.9 mph - -  
9:00 AM 80.6 °F 88.1 °F 78.8 °F 94% 29.56 in - NE 21.9 mph 36.8 mph N/A   Unknown
9:30 AM 80.6 °F 88.1 °F 78.8 °F 94% 29.56 in - NE 24.2 mph 39.1 mph N/A   Unknown
10:02 AM 80.6 °F 88.1 °F 78.8 °F 94% 29.53 in - NE 26.5 mph 38.0 mph N/A   Unknown
10:14 AM 80.6 °F 88.1 °F 78.8 °F 94% 29.50 in - NE 32.2 mph 49.5 mph N/A   Unknown
10:30 AM 78.8 °F - 78.8 °F 100% 29.53 in - NE 32.2 mph 47.2 mph N/A   Unknown
11:00 AM 80.6 °F 87.1 °F 77.0 °F 89% 29.53 in - NNE 25.3 mph 39.1 mph N/A   Unknown
11:30 AM 82.4 °F 92.4 °F 78.8 °F 89% 29.50 in - NE 24.2 mph 39.1 mph N/A   Unknown
12:00 PM 79 °F - 78 °F 96% 29.48 in - NE 32.2 mph - -  
12:00 PM 78.8 °F - 78.8 °F 100% 29.47 in - NE 32.2 mph 48.3 mph N/A   Unknown
12:15 PM 78.8 °F - 78.8 °F 100% 29.47 in - North 19.6 mph 38.0 mph N/A   Unknown
12:30 PM 78.8 °F - 77.0 °F 94% 29.47 in - North 21.9 mph 43.7 mph N/A   Unknown
1:00 PM 80.6 °F 88.1 °F 78.8 °F 94% 29.44 in - NNE 13.8 mph 40.3 mph N/A   Unknown
1:08 PM 80.6 °F 88.1 °F 78.8 °F 94% 29.44 in - NNE 17.3 mph 32.2 mph N/A   Unknown
1:30 PM 80.6 °F 88.1 °F 78.8 °F 94% 29.44 in - NNE 16.1 mph 27.6 mph N/A   Unknown
1:42 PM 78.8 °F - 78.8 °F 100% 29.44 in - North 18.4 mph 31.1 mph N/A   Unknown
2:02 PM 80.6 °F 88.1 °F 78.8 °F 94% 29.44 in - North 17.3 mph 35.7 mph N/A   Unknown
2:35 PM 80.6 °F 88.1 °F 78.8 °F 94% 29.42 in - North 17.3 mph 32.2 mph N/A   Unknown
2:41 PM 82.4 °F 92.4 °F 78.8 °F 89% 29.42 in - North 20.7 mph 44.9 mph N/A   Unknown
3:00 PM 82 °F - 79 °F 87% 29.39 in - North 21.9 mph - -  
3:00 PM 82.4 °F 92.4 °F 78.8 °F 89% 29.39 in - North 21.9 mph 44.9 mph N/A   Unknown
3:30 PM 84.2 °F 96.1 °F 78.8 °F 84% 29.39 in - North 23.0 mph 36.8 mph N/A   Unknown
4:00 PM 82.4 °F 90.9 °F 77.0 °F 84% 29.39 in - NNE 17.3 mph 31.1 mph N/A   Unknown
4:30 PM 82.4 °F 92.4 °F 78.8 °F 89% 29.39 in - North 21.9 mph 38.0 mph N/A   Unknown
5:00 PM 82.4 °F 92.4 °F 78.8 °F 89% 29.39 in - North 20.7 mph 39.1 mph N/A   Unknown
5:30 PM 82.4 °F 92.4 °F 78.8 °F 89% 29.36 in - North 23.0 mph 41.4 mph N/A   Unknown
5:55 PM 80.6 °F 88.1 °F 78.8 °F 94% 29.36 in - North 36.8 mph - N/A   Unknown
5:56 PM 80.6 °F 88.1 °F 78.8 °F 94% 29.36 in - North 32.2 mph 44.9 mph N/A   Unknown
5:59 PM 80.6 °F 87.1 °F 77.0 °F 89% 29.36 in - North 29.9 mph 57.5 mph N/A   Unknown
6:00 PM 80 °F - 77 °F 89% 29.36 in - North 29.9 mph - -  
6:00 PM 80.6 °F 87.1 °F 77.0 °F 89% 29.36 in - North 29.9 mph 57.5 mph N/A   Unknown
6:30 PM 77.0 °F - 77.0 °F 100% 29.36 in - North 33.4 mph 50.6 mph N/A   Unknown
7:04 PM 80.6 °F 87.1 °F 77.0 °F 89% 29.39 in - North 31.1 mph 42.6 mph N/A   Unknown
7:30 PM 80.6 °F 87.1 °F 77.0 °F 89% 29.39 in - North 28.8 mph 43.7 mph N/A   Unknown
8:00 PM 80.6 °F 88.1 °F 78.8 °F 94% 29.39 in - North 26.5 mph 39.1 mph N/A   Unknown
8:30 PM 80.6 °F 88.1 °F 78.8 °F 94% 29.39 in - North 25.3 mph 41.4 mph N/A   Unknown
9:00 PM 81 °F - 79 °F 90% 29.38 in - North 24.2 mph - -  
9:03 PM 80.6 °F 88.1 °F 78.8 °F 94% 29.39 in - North 25.3 mph 39.1 mph N/A   Unknown
9:30 PM 82.4 °F 92.4 °F 78.8 °F 89% 29.39 in - North 29.9 mph 44.9 mph N/A   Unknown
10:00 PM 80.6 °F 87.1 °F 77.0 °F 89% 29.36 in - North 32.2 mph 43.7 mph N/A   Unknown
10:32 PM 80.6 °F 87.1 °F 77.0 °F 89% 29.36 in - North 25.3 mph 36.8 mph N/A   Unknown
11:00 PM 80.6 °F 88.1 °F 78.8 °F 94% 29.36 in - North 23.0 mph 41.4 mph N/A   Unknown
11:35 PM 80.6 °F 88.1 °F 78.8 °F 94% 29.33 in - North 17.3 mph 28.8 mph N/A   Unknown